Regional Weather Roundup
Issued by NWS Grand Forks, ND

Home | Current Version | Previous Version | Graphics & Text | Print | Product List | Glossary On
Versions: 1 2 3 4 5 6 7 8 9 10 11 12 13 14 15 16 17 18 19 20 21 22 23 24 25 26 27 28 29 30 31 32 33 34 35 36 37 38 39 40 41 42 43 44 45 46 47 48 49 50
000
ASUS43 KFGF 251710
RWRFGF
PRAIRIE TO PINES  WEATHER ROUNDUP
NATIONAL WEATHER SERVICE EASTERN NORTH DAKOTA/GRAND FORKS ND
1100 AM CST SUN FEB 25 2018

 **SATELLITE DATA USED TO AUGMENT SKY COVER AT AUTOMATED STATIONS**
 *****  WEATHER ACROSS EASTERN NORTH DAKOTA  *****

CITY           SKY/WX    TMP DP  RH WIND       PRES   REMARKS
GRAND FORKS    CLOUDY    25  19  78 W12       29.57R WCI  14
GRAND FRKS AFB CLOUDY    26  19  74 W16       29.56R WCI  14
GRAND FRKS NWS   N/A     23  19  84 NW5       29.55R WCI  17
DEVILS LAKE    CLOUDY    20  16  84 W18       29.58R WCI   5
FARGO          CLOUDY    26  21  81 W20       29.63R WCI  12
WAHPETON ARPT  FAIR      23  18  80 W21       29.68R WCI   8
$$

 ***** WEATHER ACROSS CENTRAL AND WESTERN NORTH DAKOTA  *****

CITY           SKY/WX    TMP DP  RH WIND       PRES   REMARKS
BISMARCK       FAIR      26  16  65 W15       29.70R WCI  14
MINOT          CLOUDY    25  16  68 W18       29.61R WCI  11
JAMESTOWN      FAIR      24  17  74 W17G29    29.63R WCI  11
MINOT AFB      PTSUNNY   24  17  73 W18         N/A  WCI  10
GARRISON         N/A     22  15  75 W15       29.64R WCI   9
WILLISTON      FAIR      16   8  71 SW10      29.65S WCI   4
DICKINSON      FAIR      21  10  62 W15       29.63S WCI   8
HETTINGER      FAIR      19  11  70 W13       29.70S WCI   6
$$

 *****  OTHER AIRPORT OBSERVATIONS IN OUR AREA  *****

CITY           SKY/WX    TMP DP  RH WIND       PRES   REMARKS
WALHALLA       FAIR      23  23 100 NW12G18   29.55R WCI  12
GRAFTON AIRPOR NOT AVBL
VALLEY CITY AR NOT AVBL
CANDO          CLOUDY    21  21 100 W21       29.58R WCI   6
CAVALIER APRT    N/A     21  16  79 NW13      29.55R WCI   9
GWINNER          N/A     25  19  80 W16       29.67R WCI  12
SHEYENNE NWR     N/A     27  21  79 W13       29.95S WCI  16
ROLLA          CLOUDY    23  19  86 NW16      29.54R WCI  10
 ***** THE ABOVE OBSERVATIONS ARE NON NWS ARE NOT QUALITY
       CONTROLLED AND MAY MIS-REPORT RAIN FOR SNOW...
$$

  *****  WEATHER ACROSS NORTHERN MINNESOTA  *****

CITY           SKY/WX    TMP DP  RH WIND       PRES   REMARKS
FLAG ISLAND    CLOUDY    21  18  86 W12       29.44R WCI   9
WARROAD        LGT SNOW  19  16  86 W13       29.48S WCI   7
ROSEAU         PTSUNNY   19  16  86 W9        29.50R WCI   9
HALLOCK        PTSUNNY   18  14  86 W9        29.55R FOG     WCI   6
THF RVR FALLS  CLOUDY    15   9  76 W12       29.56R WCI   2
BAUDETTE       CLOUDY    22  17  81 W10       29.45R WCI  11
WASKISH        CLOUDY    21  18  86 SW14      29.49R WCI   8
CROOKSTON      FAIR      19  16  86 W10       29.59R WCI   8
STEPHEN NDAWN    N/A     18  12  79 W12         N/A  WCI   5
GREENBUSH NDAW   N/A     14  10  85 W12         N/A  WCI   0
$$
  *****  WEATHER ACROSS CENTRAL AND WEST MINNESOTA  *****

CITY           SKY/WX    TMP DP  RH WIND       PRES   REMARKS
FOSSTON        FAIR      18  10  73 SW12      29.57R WCI   5
BEMIDJI        LGT SNOW  18  13  80 W15       29.53R WCI   4
PARK RAPIDS    LGT SNOW  19  14  81 W21G30    29.57R WCI   3
ELBOW LAKE     CLOUDY    23  20  90 W21       29.68R FOG     WCI   7
WADENA         MIX PCPN  18  12  79 W15G22    29.61R WCI   3
DETROIT LAKES  PTSUNNY   23  19  86 W10       29.62R WCI  12
MOORHEAD       CLOUDY    25  19  80 W8        29.65R WCI  16
FERGUS FALLS   CLOUDY    21  19  93 W21       29.66R FOG     WCI   6
MORRIS MN      CLOUDY    25  18  74 W17       29.69R WCI  11
STAPLES        CLOUDY    19  12  73 W14       29.62R WCI   6
$$
  *****  WEATHER ELSEWHERE ACROSS MINNESOTA  *****

CITY           SKY/WX    TMP DP  RH WIND       PRES   REMARKS
DULUTH         CLOUDY    25  18  74 W17G33    29.47R WCI  12
INTRNTL FALLS  CLOUDY    23  19  85 W14G23    29.41R FOG     WCI  11
ELY            CLOUDY    21  18  86 W23G29    29.37R HAZE    WCI   5
CLOQUET        LGT SNOW  23  16  74 W14G26    29.51R WCI  11
WHEATON        FAIR      27  19  74 W15G22    29.72R WCI  15
BRAINERD       CLOUDY    20  12  71 W17       29.61R WCI   5
HIBBING        CLOUDY    24  17  74 W10G21    29.46R WCI  14
ALEXANDRIA     CLOUDY    22  17  81 W12       29.65R WCI  10
SAINT CLOUD    CLOUDY    20  13  74 W15       29.68R WCI   6
MINNEAPOLIS    FAIR      21  12  68 W13       29.73R WCI   9
$$

  *****  WEATHER ACROSS SOUTH DAKOTA  *****

CITY           SKY/WX    TMP DP  RH WIND       PRES   REMARKS
SIOUX FALLS    FAIR      23  14  68 W14       29.86R WCI  11
BROOKINGS      FLURRIES  25  19  80 W14       29.79R WCI  13
WATERTOWN      FAIR      20  16  84 W20       29.72R WCI   4
HURON          FAIR      26  19  74 W13       29.81R WCI  15
SISSETON         N/A     26  19  74 W23G32    29.69R WCI  11
ABERDEEN       FAIR      24  16  71 W14       29.75R WCI  12
MITCHELL       FAIR      23  14  68 SW10      29.87R WCI  12
PIERRE         FAIR      22  13  68 W14       29.82R WCI   9
MOBRIDGE       FAIR      25  14  63 W7        29.73R WCI  17
RAPID CITY     FAIR      30  16  56 NW8       29.78R WCI  22
$$

  *****  SOME WEATHER IN NEARBY STATES *****

CITY           SKY/WX    TMP DP  RH WIND       PRES   REMARKS
GLASGOW MT     PTSUNNY   10   4  76 E6        29.61F WCI   0
GREAT FALLS MT FAIR      26  16  65 SW31      29.59S WCI   9
CHEYENNE WY    FAIR      26   6  42 W25G38    29.85R WCI  11
SCOTTSBLUFF NE FAIR      33  13  43 W21G26    29.88R WCI  21
OMAHA NE       FAIR      34  20  56 W9        29.99R
DES MOINES IA  FAIR      37  23  56 W20G25    29.94R
DAVENPORT IA   FAIR      37  24  59 W18       29.96R
CHICAGO IL     FAIR      38  25  59 W20G29    29.89R
EAU CLAIRE WI  FAIR      23  15  71 SW15G25   29.70R WCI  10
LA CROSSE WI   FAIR      28  18  66 W9        29.78R WCI  19
$$

  *****  SOME NATIONAL WEATHER *****

CITY           SKY/WX    TMP DP  RH WIND       PRES   REMARKS
LA GUARDIA NY  LGT RAIN  41  38  89 NE17      30.00F FOG
RALEIGH NC     PTSUNNY   71  54  54 W15       30.08S
ATLANTA GA     CLOUDY    62  61  96 W5        30.16R
NEW ORLEANS LA LGT RAIN  65  63  93 NE9       30.11F FOG
OKLAHOMA CITY  FAIR      48  36  63 S15       30.05S
ALBUQUERQUE NM PTSUNNY   36  15  42 NW16      30.12R
SALT LAKE CITY FAIR      31  13  47 W6        30.24R
LOS ANGELES CA FAIR      56  40  55 CALM      30.24R
BOISE ID       LGT SNOW  27  23  85 SE7       30.15R FOG     WCI  19
SEATTLE WA     CLOUDY    41  41 100 SW24G32   29.80F
$$

*** WEATHER ACROSS MANITOBA...SASKATCHEWAN AND ONTARIO ***
                ***ONTARIO***

CITY           SKY/WX    TMP DP  RH WIND       PRES   REMARKS
GERALDTON      FLURRIES  25  19  80 NW3       29.06S
THUNDER BAY    CLOUDY    28  21  74 W17G30    29.23R WCI  16
SIOUX LOOKOUT  LGT SNOW  25  19  80 N8        29.30R VSB 1   WCI  16
TORONTO        PTSUNNY   52  41  66 W25G38    29.65R
BIG TROUT LK   CLOUDY    23  10  58 NE5       29.36F WCI  17
PICKLE LAKE    LGT SNOW  21  18  86 N8        29.25F VSB 1   WCI  12
DRYDEN         FLURRIES  25  21  86 W8        29.34R WCI  16
KENORA         LGT SNOW  23  19  86 NW8       29.41R WCI  14
$$
                *** MANITOBA***

CITY           SKY/WX    TMP DP  RH WIND       PRES   REMARKS
BRANDON        FLURRIES  19  18  93 W12       29.54R WCI   7
DAUPHIN        FLURRIES  23  18  80 W14       29.52R WCI  11
ISLAND LAKE    LGT SNOW  19  16  86 NW3       29.41F
PILOT MOUND      N/A     21  16  79 W12         N/A  WCI   9
THE PAS        FLURRIES  16  12  86 NW6       29.48S WCI   7
THOMPSON       LGT SNOW   9   3  78 NE8       29.51S DRFTSNOWWCI  -4
WINNIPEG       FLURRIES  16  12  86 W14       29.51R WCI   1
LYNN LAKE      SUNNY      3   0  85 E5        29.51F WCI  -6
CHURCHILL      CRYSTALS  -6 -11  77 W7        29.64F WCI -20
$$
                ***SASKATCHEWAN***

CITY           SKY/WX    TMP DP  RH WIND       PRES   REMARKS
ESTEVAN        MOSUNNY   18  10  73 SW14      29.59R WCI   4
KINDERSLEY     MOSUNNY    7   1  78 S8        29.39F WCI  -6
LLOYDMINSTER   PTSUNNY   12   5  73 SW14      29.30S WCI  -3
PRINCE ALBERT  PTSUNNY   14   7  73 SE5       29.49F WCI   6
REGINA         MOSUNNY   10   7  85 S6        29.54R WCI   1
YORKTON        CLOUDY    16  10  79 W8        29.52S WCI   5
N. BATTLEFORD  SUNNY     12   5  73 VRB3      29.40F
LA RONGE       MOSUNNY    9   5  85 N3        29.48S
SASKATOON      MOSUNNY   14  12  92 S10       29.46F WCI   1
SWIFT CURRENT  NOT AVBL
$$
NOTE: THESE ARE AUTOMATED STATIONS WITH LIMITED QUALITY CONTROL
      "FAIR" INDICATES FEW OR NO CLOUDS BELOW 12,000 FEET WITH NO
      SIGNIFICANT WEATHER AND/OR OBSTRUCTIONS TO VISIBILITY.
      SKY/WX - SKY CONDITION AND SIGNIFICANT WEATHER.
      TMP - AIR TEMPERATURE.    DP   - DEWPOINT TEMPERATURE.
      RH  - RELATIVE HUMIDITY.  PRES - PRESSURE.
      HX  - HEAT INDEX.         WCI  - WIND CHILL INDEX.
$



USA.gov is the U.S. government's official web portal to all federal, state and local government web resources and services.